カタログに戻る

FENGYUN 1C DEB

運用中PO
NORAD 36259·DEBRIS·🇨🇳 China

打ち上げ May 10, 1999 から Taiyuan Satellite Launch Center

Loading…

次のパス (今後24時間)

TLE

最新Source: Space-Track

元期: Sep 12, 2026, 20:59 UTC

1 36259U 99025DWL 26255.87442830  .00007303  00000-0  14491-2 0  9990
2 36259  98.7980  41.9572 0004470 169.6654 345.2441 14.62516098761434

AllMySatでFENGYUN 1C DEBをリアルタイム追跡

Download on the App Store